CW4610 Weather Reports


Display with metric or nautical units.
time (UTC)temp
F
wind
direction
speed
MPH
gust
MPH
rain 1hr
in
rain 24hr
in
rain mn
in
humidity
%
barometer
mb
20260904151018 56 116 0.0 0.0 0.00 0.00 0.00 94 1012.4
20260904150058 55 135 0.0 2.0 0.00 0.00 0.00 95 1012.3
20260904145018 55 68 0.0 1.0 0.00 0.01 0.00 95 1012.3
20260904144038 54 68 1.0 2.0 0.00 0.01 0.00 95 1012.1
20260904143018 54 68 0.0 1.0 0.00 0.01 0.00 94 1012.0
20260904142058 54 90 0.0 1.0 0.00 0.01 0.00 94 1011.9
20260904141018 54 87 0.0 0.0 0.00 0.01 0.00 94 1011.9
20260904140039 54 87 0.0 0.0 0.00 0.01 0.00 94 1011.6
20260904135058 54 90 1.0 2.0 0.00 0.01 0.00 94 1011.5
20260904134018 54 90 0.0 1.0 0.00 0.01 0.00 94 1011.4
20260904133037 54 90 1.0 2.0 0.00 0.01 0.00 94 1011.4
20260904132018 54 90 2.0 3.0 0.00 0.01 0.00 93 1011.4
20260904131046 54 68 1.0 2.0 0.00 0.01 0.00 94 1011.2
20260904130018 54 71 0.0 0.0 0.00 0.01 0.00 94 1011.3
20260904125017 54 68 0.0 2.0 0.00 0.01 0.00 94 1011.3
20260904124018 54 68 0.0 1.0 0.00 0.01 0.00 93 1011.3
20260904123018 54 68 1.0 2.0 0.00 0.01 0.00 94 1011.1
20260904122018 54 78 0.0 0.0 0.00 0.01 0.00 93 1011.0
20260904121018 54 90 2.0 5.0 0.00 0.01 0.00 93 1010.9
20260904120018 54 74 0.0 0.0 0.00 0.01 0.00 93 1010.9
20260904115017 54 74 0.0 0.0 0.00 0.01 0.00 93 1010.9
20260904114018 55 74 0.0 0.0 0.00 0.01 0.00 93 1010.9
20260904113020 55 46 0.0 0.0 0.00 0.01 0.00 93 1010.8
20260904112100 55 68 1.0 2.0 0.00 0.01 0.00 93 1010.8
20260904111020 55 63 0.0 0.0 0.00 0.01 0.00 93 1010.7
20260904110020 55 63 0.0 0.0 0.00 0.01 0.00 92 1010.5
20260904105100 55 63 0.0 0.0 0.00 0.01 0.00 92 1010.4
20260904104020 55 68 0.0 1.0 0.00 0.01 0.00 92 1010.3
20260904103021 55 63 0.0 0.0 0.00 0.01 0.00 92 1010.4
20260904102020 55 68 0.0 2.0 0.00 0.01 0.00 92 1010.4
20260904101019 55 63 0.0 0.0 0.00 0.01 0.00 92 1010.4
20260904100019 55 63 0.0 0.0 0.00 0.01 0.00 92 1010.3
20260904095019 55 94 0.0 0.0 0.00 0.02 0.00 92 1010.3
20260904094019 55 94 0.0 0.0 0.00 0.02 0.00 92 1010.3
20260904093021 55 94 0.0 0.0 0.00 0.02 0.00 92 1010.4
20260904092020 55 36 0.0 0.0 0.00 0.02 0.00 91 1010.4
20260904091020 55 45 0.0 1.0 0.00 0.02 0.00 92 1010.4
20260904090020 56 45 1.0 2.0 0.00 0.02 0.00 91 1010.4
20260904085020 56 68 1.0 3.0 0.00 0.02 0.00 91 1010.4
20260904084019 56 113 0.0 1.0 0.00 0.02 0.00 91 1010.3
20260904083100 56 135 1.0 4.0 0.00 0.02 0.00 91 1010.4
20260904082100 56 90 0.0 1.0 0.00 0.02 0.00 91 1010.4
20260904081020 56 101 0.0 0.0 0.00 0.02 0.00 91 1010.4
20260904080019 56 90 0.0 1.0 0.00 0.02 0.00 91 1010.3
20260904075019 56 90 1.0 2.0 0.00 0.04 0.00 91 1010.3
20260904074019 56 113 1.0 2.0 0.00 0.04 0.00 90 1010.3
20260904073059 56 90 0.0 2.0 0.00 0.04 0.00 90 1010.3
20260904072027 56 90 0.0 1.0 0.00 0.04 0.00 89 1010.3
20260904071020 56 81 0.0 0.0 0.00 0.04 0.00 89 1010.3
20260904070020 56 90 0.0 1.0 0.00 0.04 0.04 89 1010.3
20260904065018 57 90 0.0 1.0 0.00 0.04 0.04 89 1010.3
20260904064019 57 68 0.0 1.0 0.00 0.04 0.04 89 1010.3
20260904063018 57 91 0.0 0.0 0.00 0.04 0.04 89 1010.3
20260904062058 57 90 0.0 1.0 0.00 0.04 0.04 89 1010.3
20260904061018 57 113 0.0 2.0 0.00 0.04 0.04 88 1010.3
20260904060058 57 127 0.0 0.0 0.00 0.04 0.04 88 1010.2
20260904055018 57 135 0.0 1.0 0.00 0.04 0.04 87 1010.2
20260904054130 58 167 0.0 0.0 0.00 0.04 0.04 87 1010.0
20260904053018 58 167 0.0 0.0 0.00 0.04 0.04 87 1010.0
20260904052058 58 167 0.0 0.0 0.00 0.04 0.04 86 1010.0
20260904051018 58 90 0.0 2.0 0.00 0.04 0.04 85 1009.9
20260904050059 58 90 0.0 2.0 0.00 0.04 0.04 85 1009.9
20260904045018 58 114 0.0 0.0 0.00 0.06 0.04 85 1009.9
20260904044019 58 69 0.0 0.0 0.00 0.06 0.04 83 1009.8
20260904043038 58 68 0.0 1.0 0.00 0.06 0.04 83 1009.8
20260904042018 59 173 0.0 0.0 0.00 0.06 0.04 84 1009.8
20260904041020 59 180 1.0 2.0 0.00 0.06 0.04 84 1009.8
20260904040019 59 90 1.0 2.0 0.00 0.06 0.04 82 1009.8
20260904035045 59 68 0.0 2.0 0.00 0.16 0.04 81 1009.8
20260904034018 60 68 1.0 3.0 0.00 0.16 0.04 81 1009.7
20260904033018 60 113 3.0 5.0 0.00 0.16 0.04 80 1009.6
20260904032058 61 113 1.0 3.0 0.00 0.16 0.04 80 1009.6
20260904031020 61 0 0.0 2.0 0.00 0.16 0.04 76 1009.5
20260904030020 61 23 1.0 2.0 0.00 0.16 0.04 75 1009.5
20260904025100 61 23 3.0 7.0 0.00 0.29 0.04 75 1009.4
20260904024035 62 0 5.0 8.0 0.00 0.29 0.04 75 1009.4
20260904023019 62 23 4.0 7.0 0.00 0.29 0.04 74 1009.5
20260904022019 62 0 4.0 9.0 0.00 0.29 0.04 74 1009.5
20260904021020 63 315 3.0 5.0 0.00 0.29 0.04 75 1009.4
20260904020020 63 23 2.0 4.0 0.00 0.29 0.04 72 1009.4
20260904015020 64 0 1.0 4.0 0.00 0.31 0.04 73 1009.3
20260904014019 64 23 4.0 8.0 0.00 0.31 0.04 70 1009.3
20260904013019 64 45 2.0 5.0 0.00 0.31 0.04 69 1009.3
20260904012019 64 23 2.0 6.0 0.00 0.31 0.04 69 1009.3
20260904011019 64 68 3.0 6.0 0.00 0.31 0.04 69 1009.1
20260904010019 65 0 4.0 10.0 0.00 0.31 0.04 69 1009.0
20260904005020 65 0 3.0 6.0 0.00 0.41 0.04 70 1009.0
20260904004020 65 23 4.0 7.0 0.00 0.41 0.04 70 1009.0
20260904003019 65 23 3.0 8.0 0.00 0.41 0.04 71 1009.1
20260904002020 65 23 3.0 8.0 0.00 0.41 0.04 71 1009.1
20260904001019 64 45 3.0 7.0 0.00 0.41 0.04 73 1009.1
20260904000019 64 23 5.0 9.0 0.00 0.41 0.04 73 1009.1
20260903235019 64 0 6.0 10.0 0.00 0.50 0.04 74 1009.1
20260903234020 64 23 3.0 7.0 0.00 0.50 0.04 75 1009.1
20260903233028 64 0 4.0 8.0 0.00 0.50 0.04 73 1009.2
20260903232059 64 0 6.0 10.0 0.00 0.50 0.04 73 1009.2
20260903231019 64 0 6.0 9.0 0.00 0.50 0.04 73 1009.3
20260903230019 64 0 5.0 8.0 0.00 0.50 0.04 74 1009.3
20260903225019 64 23 4.0 9.0 0.00 0.54 0.04 74 1009.2
20260903224019 64 23 3.0 7.0 0.00 0.54 0.04 74 1009.2
20260903223020 65 0 5.0 8.0 0.00 0.54 0.04 74 1009.2
20260903222019 65 23 6.0 11.0 0.00 0.54 0.04 71 1009.2
20260903221019 66 0 7.0 10.0 0.00 0.54 0.04 71 1009.2
20260903220059 66 0 9.0 15.0 0.00 0.54 0.04 73 1009.2
20260903215019 66 0 7.0 14.0 0.00 0.59 0.04 71 1009.2
20260903214039 65 45 6.0 10.0 0.00 0.59 0.04 77 1009.2
20260903213019 64 0 4.0 8.0 0.00 0.59 0.04 77 1009.1
20260903212019 64 23 4.0 8.0 0.00 0.59 0.04 79 1009.0
20260903211019 64 23 7.0 13.0 0.00 0.59 0.04 78 1009.1
20260903210020 64 23 6.0 12.0 0.00 0.59 0.04 79 1009.0
20260903205034 63 23 7.0 13.0 0.00 0.62 0.04 80 1009.0
20260903204032 62 23 6.0 9.0 0.00 0.62 0.04 82 1008.8
20260903203019 62 0 5.0 9.0 0.00 0.62 0.04 83 1008.9
20260903202019 62 0 5.0 10.0 0.00 0.62 0.04 82 1008.9
20260903201019 62 0 4.0 11.0 0.00 0.62 0.04 84 1008.9
20260903200059 61 0 5.0 8.0 0.00 0.62 0.04 85 1008.8
20260903195019 61 0 4.0 8.0 0.00 0.65 0.04 88 1008.8
20260903194018 61 338 5.0 11.0 0.00 0.65 0.04 89 1008.8
20260903193019 60 0 6.0 11.0 0.00 0.65 0.04 88 1008.8
20260903192018 61 0 6.0 11.0 0.00 0.65 0.04 87 1008.7
20260903191052 61 338 6.0 12.0 0.00 0.65 0.04 88 1008.7
20260903190019 61 315 3.0 8.0 0.00 0.65 0.04 90 1008.6
20260903185059 60 315 4.0 9.0 0.00 0.65 0.04 89 1008.6
20260903184019 60 0 4.0 6.0 0.00 0.65 0.04 91 1008.4
20260903183019 60 0 3.0 5.0 0.00 0.65 0.04 91 1008.3
20260903182019 59 0 4.0 9.0 0.00 0.65 0.04 91 1008.3
20260903181059 59 315 5.0 9.0 0.00 0.65 0.04 92 1008.1
20260903180018 59 0 5.0 8.0 0.00 0.65 0.04 94 1007.9
20260903175021 59 315 5.0 9.0 0.00 0.65 0.04 97 1007.9
20260903174059 59 315 4.0 7.0 0.00 0.65 0.04 97 1007.8
20260903173019 58 293 4.0 7.0 0.00 0.65 0.04 98 1007.7
20260903172040 58 293 4.0 8.0 0.00 0.65 0.04 98 1007.7
20260903171019 58 315 2.0 6.0 0.00 0.65 0.04 98 1007.6
20260903170019 58 315 3.0 5.0 0.00 0.65 0.04 98 1007.4
20260903165018 58 270 1.0 3.0 0.00 0.65 0.04 98 1007.3
20260903164018 58 225 2.0 4.0 0.00 0.65 0.04 98 1007.2
20260903163019 58 225 2.0 3.0 0.00 0.65 0.04 98 1007.2
20260903162018 58 293 1.0 2.0 0.00 0.65 0.04 99 1007.2
20260903161018 57 225 0.0 2.0 0.00 0.65 0.04 99 1007.2
20260903160019 57 315 0.0 1.0 0.00 0.65 0.04 98 1007.0
20260903155018 57 315 1.0 2.0 0.00 0.66 0.04 99 1007.0
20260903154059 57 315 2.0 4.0 0.00 0.66 0.04 99 1006.8
20260903153027 56 0 2.0 4.0 0.01 0.66 0.04 99 1006.7
20260903152018 56 315 2.0 3.0 0.01 0.66 0.04 98 1006.7